Springfield, MO

8:52 AM CDT on April 23, 2018 (GMT -0500)
Springfield-Branson Regional

Weather History for KSGF - December, 2014

Change the Weather History Date:

Thursday, December 25, 2014

  Actual Average Record
Temperature  
Mean Temperature 42 °F 33 °F  
Max Temperature 54 °F 43 °F 74 °F (1889)
Min Temperature 30 °F 23 °F -10 °F (1983)
Degree Days  
Heating Degree Days 23 32  
Month to date heating degree days 628 740  
Since 1 July heating degree days 1578 1619  
Cooling Degree Days 0 0  
Month to date cooling degree days 0 0  
Year to date cooling degree days 1470 1389  
Moisture  
Dew Point 28 °F    
Average Humidity 60    
Maximum Humidity 85    
Minimum Humidity 35    
Precipitation  
Precipitation 0.00 in 0.08 in 1.47 in (1888)
Month to date precipitation 1.62 2.53  
Year to date precipitation 38.44 45.06  
Snow  
Snow 0.00 in - - ()
Month to date snowfall 0.5  
Since 1 July snowfall 2.2  
Snow Depth 0.00 in    
Sea Level Pressure  
Sea Level Pressure 29.92 in    
Wind  
Wind Speed 16 mph (South)    
Max Wind Speed 30 mph    
Max Gust Speed 35 mph    
Visibility 10 miles    
Events      
T = Trace of Precipitation, MM = Missing Value Source: NWS Daily Summary

Daily Weather History Graph

Daily Weather History Graph

Search for Another Location

Airport or City:

Astronomy

Dec. 25, 2014 Rise Set
Actual Time 7:25 AM CST 5:01 PM CST
Civil Twilight 6:56 AM CST 5:31 PM CST
Nautical Twilight 6:23 AM CST 6:03 PM CST
Astronomical Twilight 5:51 AM CST 6:35 PM CST
Moon 10:04 AM CST (12/25) 9:31 PM CST (12/25)
Length of Visible Light 10h 34m
Length of Day
9h 36m
Waxing Crescent, 18% of the Moon is Illuminated
Dec 25
Waxing Crescent
Dec 28
First Quarter
Jan 4
Full
Jan 13
Last Quarter
Jan 20
New

Hourly Weather History & Observations

Time (CST) Temp. Windchill Dew Point Humidity Pressure Visibility Wind Dir Wind Speed Gust Speed Precip Events Conditions
12:52 AM 30.9 °F 22.2 °F 27.0 °F 85% 29.92 in 10.0 mi South 10.4 mph - N/A   Clear
1:52 AM 30.0 °F 21.1 °F 27.0 °F 88% 29.93 in 10.0 mi South 10.4 mph - N/A   Clear
2:52 AM 30.0 °F 22.4 °F 27.0 °F 88% 29.93 in 10.0 mi South 8.1 mph - N/A   Clear
3:52 AM 30.9 °F 22.2 °F 27.0 °F 85% 29.92 in 10.0 mi SSE 10.4 mph - N/A   Clear
4:52 AM 30.9 °F 21.7 °F 27.0 °F 85% 29.92 in 10.0 mi South 11.5 mph - N/A   Clear
5:52 AM 30.9 °F 20.7 °F 27.0 °F 85% 29.93 in 10.0 mi South 13.8 mph - N/A   Clear
6:52 AM 30.9 °F 21.7 °F 27.0 °F 85% 29.95 in 10.0 mi South 11.5 mph - N/A   Clear
7:52 AM 30.9 °F 21.7 °F 27.0 °F 85% 29.95 in 10.0 mi SSE 11.5 mph - N/A   Clear
8:52 AM 35.1 °F 25.5 °F 28.9 °F 78% 29.97 in 10.0 mi South 15.0 mph - N/A   Clear
9:52 AM 39.9 °F 30.2 °F 30.9 °F 70% 29.99 in 10.0 mi South 20.7 mph 26.5 mph N/A   Clear
10:52 AM 44.1 °F 35.9 °F 30.9 °F 60% 29.98 in 10.0 mi South 19.6 mph - N/A   Clear
11:52 AM 48.0 °F - 30.0 °F 50% 29.92 in 10.0 mi South 16.1 mph 28.8 mph N/A   Clear
12:52 PM 51.1 °F - 28.0 °F 41% 29.91 in 10.0 mi South 21.9 mph 28.8 mph N/A   Clear
1:52 PM 53.1 °F - 27.0 °F 37% 29.89 in 10.0 mi South 20.7 mph - N/A   Clear
2:52 PM 53.1 °F - 27.0 °F 37% 29.89 in 10.0 mi South 15.0 mph 27.6 mph N/A   Clear
3:52 PM 52.0 °F - 26.1 °F 37% 29.88 in 10.0 mi South 19.6 mph 27.6 mph N/A   Clear
4:52 PM 50.0 °F - 27.0 °F 41% 29.87 in 10.0 mi South 17.3 mph - N/A   Clear
5:52 PM 48.0 °F - 28.0 °F 46% 29.88 in 10.0 mi SSE 17.3 mph - N/A   Clear
6:52 PM 46.9 °F - 28.0 °F 48% 29.89 in 10.0 mi South 19.6 mph 27.6 mph N/A   Clear
7:52 PM 46.9 °F - 28.0 °F 48% 29.88 in 10.0 mi South 25.3 mph 32.2 mph N/A   Clear
8:52 PM 46.0 °F 38.0 °F 28.9 °F 51% 29.89 in 10.0 mi South 21.9 mph 29.9 mph N/A   Clear
9:52 PM 46.0 °F 38.5 °F 28.9 °F 51% 29.91 in 10.0 mi South 19.6 mph 25.3 mph N/A   Clear
10:52 PM 45.0 °F 38.2 °F 30.0 °F 56% 29.92 in 10.0 mi South 15.0 mph - N/A   Clear
11:52 PM 45.0 °F 38.2 °F 30.9 °F 58% 29.92 in 10.0 mi South 15.0 mph - N/A   Clear